Location: Unspecified
(0.0000°N, 0.0000°E)
Time: 09:35:07
(UTC+00:00)

Vanguard 2 - Pass Details

Date: 24 October 2021
Orbit: 554 x 2936 km, 32.9° (Epoch: 06 December)

Event Time Altitude Azimuth Distance (km) Brightness Sun altitude
Rises 12:23:20 0° 249° (WSW) 3,126 10.8 74.6°
Reaches altitude 10° 12:27:39 10° 213° (SSW) 2,588 10.6 73.9°
Maximum altitude 12:29:23 11° 196° (SSW) 2,675 10.7 73.6°
Drops below altitude 10° 12:31:18 10° 180° (S) 2,957 10.9 73.3°
Sets 12:37:44 0° 148° (SSE) 4,610 11.6 72.1°
